Showing default

HULIANWANG DIGUI-19, 62979

Orbit data source: Space-Track

HULIANWANG DIGUI-19, 62979 is a payload satellite owned by Zhongguo Xingwang (CN) in LEO that was launched on Tue, 11 Feb 2025 UTC via a CHANG ZHENG 8A launch vehicle from the Wenchang Satellite Launch Center (WSC). Payload-class satellites include a variety of spacecraft equipped with specific instruments for various scientific and technological missions. These include communications satellites like Starlink; space stations such as the ISS; scientific satellites like the Hubble; Earth observation satellites from companies like Planet Labs, Umbra, and HawkEye 360; GPS; miniature CubeSats for education and research; and military/defense satellites.

Loading next visibility...
Identifier
62979, 2025-030J
Orbit
LEO
Country
Flag of CNCN / PRC
Related business
Manufacturer
CAST
Mission
Operational Civil Communications
Bus & Motor
XINGWANG C, Unknown motor
Mass
~700 kg wet, ~700 kg dry
Launch date (UTC)
2025-02-11 (1 year ago)
Launch vehicle
CHANG ZHENG 8A
Launch site
Wenchang Satellite Launch Center (WSC)
Object type
Payload
Rocket body
Debris
Shape & HBR
Box + 2 Pan, 2.1 m
Radar Cross Section
5.935 m², Large (>1 m²)

Expand to show TLE details & history
Last TLE update: 10 hours ago

TLE from 10 hours ago
0 HULIANWANG DIGUI-19
1 62979U 25030J   26104.90882967 -.00000084  00000-0  86003-4 0  9999
2 62979  50.0035 102.7097 0001192 300.1690  59.9064 13.29324421 57440
Epoch: 2026-04-14T21:48Z
TLE epoch observation values (Epoch: 2026-04-14T21:48:42.883Z)
Latitude
-0.00001°
Longitude
-67.54731°
Altitude
1,149.369 km
Speed
7.28 km/s
True Right ascension
06h 50m 50s
True Declination
0° 00' 00"
Sunlit
Object was in daylight at epoch
Visualization orbit readout
Latitude
Unknown
Longitude
Unknown
Altitude
Unknown
Speed
Unknown
Apparent Right ascension
Unknown
Apparent Declination
Unknown
Sunlit
N/A
Visualization observer readout
Local Sidereal Time
14:20:13
Azimuth
Unknown
Elevation
Unknown
Doppler factor
Unknown
Orbital elements
Apogee altitude
1,150.915 km
Perigee altitude
1,149.12 km
Semi-major axis
7,528.154 km
Eccentricity
0.00012
Inclination
50.0035°
RAAN
102.7097°
Arg. of periapsis
300.169°
True anomaly
59.91822°
Mean anomaly
59.9064°
Eccentric anomaly
59.91231°
Mean motion
3.32285 °/min
Orbital period
108.34 mins
BSTAR
0.000086003
Loading maneuver chart data...
Computing Atmospheric mass density...
Loading historical data...
Loading historical data...
Loading historical data...
Loading historical data...
Loading historical data...
Loading historical data...
Loading historical data...

Documentation

Showing up to 5 results
|